Weather History for Bentonville, AR

Change the Weather History Date:

Monday, October 22, 2012

  Actual Average Record
Temperature  
Mean Temperature 72 °F -  
Max Temperature 77 °F 69 °F 87 °F (1950)
Min Temperature 68 °F 43 °F 23 °F (1952)
Cooling Degree Days 8    
Growing Degree Days 22 (Base 50)    
Moisture  
Dew Point 64 °F    
Average Humidity 75    
Maximum Humidity 88    
Minimum Humidity 65    
Precipitation  
Precipitation 0.04 in - - ()
Sea Level Pressure  
Sea Level Pressure 29.93 in    
Wind  
Wind Speed 10 mph (South)    
Max Wind Speed 16 mph    
Max Gust Speed 26 mph    
Visibility 10 miles    
Events Thunderstorm    
Averages and records for this station are not official NWS values.
T = Trace of Precipitation, MM = Missing Value Source: NWS Daily Summary

Daily Weather History Graph

Daily Weather History Graph

Search for Another Location

Airport:

Trip Planner

Search our weather history database for the weather conditions in past years. The results will help you decide how hot, cold, wet, or windy it might be!

Date:

Astronomy

Oct. 22, 2012 Rise Set
Actual Time 7:30 AM CDT 6:31 PM CDT
Civil Twilight 7:04 AM CDT 6:57 PM CDT
Nautical Twilight 6:34 AM CDT 7:27 PM CDT
Astronomical Twilight 6:04 AM CDT 7:57 PM CDT
Moon 2:28 PM CDT (10/22) 12:30 AM CDT (10/22)
Length of Visible Light 11h 52m
Length of Day
11h 00m
First Quarter, 56% of the Moon is Illuminated
Oct 22
First Quarter
Oct 29
Full
Nov 6
Last Quarter
Nov 13
New
Nov 20
First Quarter

Hourly Weather History & Observations

Time (CDT) Temp. Dew Point Humidity Pressure Visibility Wind Dir Wind Speed Gust Speed Precip Events Conditions
12:15 AM 71.6 °F 64.4 °F 78% 29.89 in 10.0 mi South 10.4 mph - N/A   Clear
12:36 AM 71.6 °F 64.4 °F 78% 29.89 in 10.0 mi South 10.4 mph 20.7 mph N/A   Clear
12:55 AM 71.6 °F 64.4 °F 78% 29.89 in 10.0 mi South 10.4 mph 19.6 mph N/A   Clear
1:15 AM 71.6 °F 64.4 °F 78% 29.89 in 10.0 mi South 6.9 mph - N/A   Clear
1:55 AM 71.6 °F 64.4 °F 78% 29.89 in 10.0 mi South 8.1 mph 16.1 mph N/A   Clear
2:15 AM 71.6 °F 64.4 °F 78% 29.89 in 10.0 mi South 8.1 mph - N/A   Clear
2:55 AM 71.6 °F 64.4 °F 78% 29.89 in 10.0 mi South 6.9 mph - N/A   Clear
3:15 AM 71.6 °F 64.4 °F 78% 29.89 in 10.0 mi South 8.1 mph - N/A   Clear
3:36 AM 71.6 °F 64.4 °F 78% 29.89 in 10.0 mi South 11.5 mph - N/A   Clear
3:55 AM 71.6 °F 62.6 °F 73% 29.89 in 10.0 mi SSW 8.1 mph - N/A   Clear
4:15 AM 71.6 °F 62.6 °F 73% 29.89 in 10.0 mi SSW 8.1 mph - N/A   Clear
4:55 AM 71.6 °F 62.6 °F 73% 29.90 in 10.0 mi South 8.1 mph - N/A   Overcast
5:15 AM 71.6 °F 62.6 °F 73% 29.90 in 10.0 mi South 10.4 mph 17.3 mph N/A   Overcast
5:35 AM 71.6 °F 64.4 °F 78% 29.90 in 10.0 mi South 12.7 mph 19.6 mph N/A   Overcast
5:55 AM 71.6 °F 64.4 °F 78% 29.91 in 10.0 mi South 11.5 mph 17.3 mph N/A   Overcast
6:15 AM 71.6 °F 64.4 °F 78% 29.91 in 10.0 mi South 10.4 mph 19.6 mph N/A   Mostly Cloudy
6:55 AM 69.8 °F 62.6 °F 78% 29.92 in 10.0 mi SSW 11.5 mph 17.3 mph N/A   Clear
7:15 AM 69.8 °F 62.6 °F 78% 29.92 in 10.0 mi SSW 10.4 mph 20.7 mph N/A   Clear
8:15 AM 69.8 °F 62.6 °F 78% 29.94 in 10.0 mi SSW 11.5 mph 18.4 mph N/A   Clear
8:35 AM 69.8 °F 62.6 °F 78% 29.94 in 10.0 mi SSW 12.7 mph 18.4 mph N/A   Clear
8:55 AM 71.6 °F 62.6 °F 73% 29.95 in 10.0 mi South 12.7 mph 20.7 mph N/A   Clear
9:16 AM 71.6 °F 62.6 °F 73% 29.95 in 10.0 mi SSW 15.0 mph 21.9 mph N/A   Clear
9:35 AM 71.6 °F 62.6 °F 73% 29.95 in 10.0 mi South 15.0 mph 20.7 mph N/A   Clear
9:55 AM 73.4 °F 62.6 °F 69% 29.95 in 10.0 mi SSW 16.1 mph 19.6 mph N/A   Clear
10:35 AM 73.4 °F 62.6 °F 69% 29.95 in 10.0 mi South 12.7 mph 23.0 mph N/A   Clear
10:55 AM 75.2 °F 62.6 °F 65% 29.95 in 10.0 mi Calm Calm - N/A   Clear
11:16 AM 75.2 °F 64.4 °F 69% 29.94 in 10.0 mi SSW 16.1 mph 24.2 mph N/A   Clear
11:35 AM 75.2 °F 62.6 °F 65% 29.95 in 10.0 mi SSW 13.8 mph 26.5 mph 0.02 in   Partly Cloudy
11:55 AM 75.2 °F 64.4 °F 69% 29.95 in 10.0 mi SSW 13.8 mph 23.0 mph 0.02 in   Scattered Clouds
12:16 PM 77.0 °F 64.4 °F 65% 29.94 in - South 13.8 mph 19.6 mph N/A   Mostly Cloudy
12:35 PM 75.2 °F 64.4 °F 69% 29.95 in 10.0 mi South 12.7 mph 24.2 mph N/A   Overcast
1:15 PM 73.4 °F 64.4 °F 73% 29.95 in 10.0 mi SSW 13.8 mph 18.4 mph N/A   Overcast
1:35 PM 73.4 °F 64.4 °F 73% 29.95 in 10.0 mi South 8.1 mph 17.3 mph N/A   Overcast
2:15 PM 73.4 °F 64.4 °F 73% 29.94 in 10.0 mi SSW 12.7 mph 19.6 mph N/A   Overcast
3:15 PM 73.4 °F 64.4 °F 73% 29.94 in 10.0 mi SSW 10.4 mph 18.4 mph N/A   Overcast
3:35 PM 73.4 °F 64.4 °F 73% 29.94 in 10.0 mi SSW 10.4 mph 18.4 mph N/A   Overcast
3:55 PM 73.4 °F 64.4 °F 73% 29.94 in 10.0 mi SSW 9.2 mph 17.3 mph N/A   Overcast
4:15 PM 73.4 °F 64.4 °F 73% 29.94 in 10.0 mi SSW 9.2 mph 16.1 mph N/A   Overcast
4:35 PM 75.2 °F 64.4 °F 69% 29.93 in 10.0 mi South 8.1 mph - N/A   Mostly Cloudy
4:55 PM 75.2 °F 64.4 °F 69% 29.93 in 10.0 mi South 8.1 mph - N/A   Mostly Cloudy
5:15 PM 73.4 °F 64.4 °F 73% 29.93 in 10.0 mi South 9.2 mph 16.1 mph N/A   Scattered Clouds
5:35 PM 73.4 °F 64.4 °F 73% 29.93 in 10.0 mi South 11.5 mph - N/A   Scattered Clouds
5:55 PM 73.4 °F 64.4 °F 73% 29.94 in 10.0 mi SSW 9.2 mph - N/A   Partly Cloudy
6:16 PM 71.6 °F 64.4 °F 78% 29.94 in 10.0 mi South 9.2 mph - N/A   Clear
6:35 PM 71.6 °F 64.4 °F 78% 29.94 in 10.0 mi South 9.2 mph - N/A   Clear
6:55 PM 71.6 °F 64.4 °F 78% 29.92 in 10.0 mi South 10.4 mph - N/A   Mostly Cloudy
7:16 PM 71.6 °F 64.4 °F 78% 29.92 in 10.0 mi SSE 11.5 mph - N/A   Scattered Clouds
7:35 PM 71.6 °F 64.4 °F 78% 29.90 in 10.0 mi SE 11.5 mph - N/A   Clear
7:55 PM 71.6 °F 64.4 °F 78% 29.91 in 10.0 mi SSE 10.4 mph - N/A   Scattered Clouds
8:55 PM 69.8 °F 64.4 °F 83% 29.91 in 10.0 mi South 6.9 mph - N/A   Mostly Cloudy
9:35 PM 69.8 °F 64.4 °F 83% 29.93 in 10.0 mi South 5.8 mph - N/A   Mostly Cloudy
10:16 PM 69.8 °F 64.4 °F 83% 29.94 in 10.0 mi South 10.4 mph 16.1 mph N/A   Overcast
10:35 PM 69.8 °F 64.4 °F 83% 29.96 in 10.0 mi SSW 5.8 mph - 0.02 in   Overcast
11:15 PM 69.8 °F 64.4 °F 83% 29.95 in 10.0 mi South 8.1 mph - N/A Thunderstorm Mostly Cloudy
11:35 PM 68.0 °F 64.4 °F 88% 29.94 in 9.0 mi South 9.2 mph - N/A   Scattered Clouds
11:55 PM 68.0 °F 64.4 °F 88% 29.94 in 9.0 mi South 9.2 mph - N/A   Mostly Cloudy